Home   Weather   Perchtoldsdorf   Past weeks

Flag for Austria Past Weather in Perchtoldsdorf, Lower Austria, Austria — Yesterday and Last 2 Weeks

Now
58 °F

Cool.


Feels Like: 58 °F
Forecast: 51 / 78 °F
Wind: No wind

Location: Wien / Hohe Warte

Current Time: Aug 31, 2016 at 6:31:41 AM

Latest Report: Aug 31, 2016 at 5:00 AM


Visibility: N/A

Pressure: 30.25 "Hg

Humidity: 64%

Dew Point: 46 °F

Location of PerchtoldsdorfLocation

Past Weather in Perchtoldsdorf — Graph

°F

Perchtoldsdorf Temperature Yesterday

Maximum temperature yesterday: 78 °F (at 4:00 PM)
Minimum temperature yesterday: 66 °F (at 6:00 AM)
Average temperature yesterday: 71 °F

High & Low Weather Summary for the Past Weeks

 TemperatureHumidityPressure
High88 °F (Aug 28, 4:00 PM)95% (Aug 20, 7:00 AM)30.35 "Hg (Aug 20, 7:00 AM)
Low54 °F (Aug 18, 6:00 AM)38% (Aug 26, 4:00 PM)29.78 "Hg (Aug 18, 5:00 PM)
Average70 °F66%30.08 "Hg
* Reported Aug 16 5:00 AM — Aug 31 5:00 AM, Perchtoldsdorf, Weather by CustomWeather, © 2016

Note: Actual official high and low records may vary slightly from our data, if they occured in-between our weather recording intervals... More about our weather records

Advertising

Perchtoldsdorf Weather History for the Previous 24 Hours

Scroll right to see more
 ConditionsComfort  
Time TempWeatherWind HumidityBarometerVisibility
5:00 AM
Wed, Aug 31
58 °FCool.No wind64%30.25 "HgN/A
4:00 AM61 °FRefreshingly cool.1 mph57%30.24 "HgN/A
3:00 AM61 °FRefreshingly cool.2 mph56%30.26 "HgN/A
2:00 AM63 °FClear.3 mph55%30.25 "Hg16 mi
1:00 AM64 °FMild.3 mph54%30.26 "HgN/A
12:00 AM65 °FMild.5 mph55%30.25 "HgN/A
11:00 PM
Tue, Aug 30
67 °FMild.5 mph54%30.24 "HgN/A
10:00 PM67 °FMild.3 mph49%30.22 "HgN/A
9:00 PM70 °FMild.5 mph44%30.20 "HgN/A
8:00 PM71 °FPassing clouds.3 mph46%30.19 "Hg31 mi
7:00 PM74 °FPassing clouds.3 mph44%30.16 "Hg31 mi
6:00 PM76 °FPassing clouds.5 mph44%30.17 "Hg31 mi
5:00 PM76 °FPassing clouds.3 mph47%30.17 "Hg31 mi
4:00 PM78 °FPassing clouds.5 mph44%30.18 "Hg31 mi
3:00 PM76 °FScattered clouds.3 mph46%30.19 "Hg31 mi
2:00 PM75 °FScattered clouds.5 mph48%30.20 "Hg31 mi
1:00 PM76 °FScattered clouds.3 mph50%30.21 "Hg31 mi
12:00 PM74 °FMild.5 mph54%30.21 "HgN/A
11:00 AM72 °FPassing clouds.5 mph60%30.22 "Hg25 mi
10:00 AM70 °FPassing clouds.3 mph69%30.21 "Hg22 mi
9:00 AM68 °FPartly sunny.5 mph74%30.19 "Hg22 mi
8:00 AM68 °FPartly sunny.5 mph72%30.18 "Hg22 mi
7:00 AM66 °FOvercast.3 mph75%30.16 "Hg22 mi
6:00 AM66 °FPassing clouds.3 mph76%30.14 "Hg25 mi
Weather by CustomWeather, © 2016

See weather overviewHow to use our weather pages